Location: Karcze
(52.0945°N, 22.4786°E)
Time: 18:30:57
(UTC+00:00)

A-11 Canister half - Pass Details

Date: 02 August 2021
Orbit: 1515 x 1685 km, 47.2° (Epoch: 20 September)

Event Time Altitude Azimuth Distance (km) Brightness Sun altitude
Rises 20:38:00 0° 284° (WNW) 4,894 12.3 -15.8°
Reaches altitude 10° 20:41:19 10° 278° (W) 3,922 11.6 -16.0°
Maximum altitude 20:50:34 43° 212° (SSW) 2,217 9.6 -16.7°
Enters shadow 20:56:33 23° 156° (SSE) 3,054 9.9 -17.1°
Drops below altitude 10° 20:59:53 10° 145° (SE) 3,939 - -17.3°
Sets 21:03:14 0° 139° (SE) 4,917 - -17.5°
